Home > Weather > Rybnik > Past weeks

Flag for Poland Past Weather in Rybnik, Poland — Yesterday and Last 2 Weeks

Now
64 °F

Partly sunny.


Feels Like: 64 °F
Forecast: 58 / 73 °F
Wind: 5 mph from East

Location: Katowice Airport

Current Time: May 31, 2016 at 10:00:19 PM

Latest Report: May 31, 2016 at 9:30 PM


Visibility: N/A

Pressure: 29.83 "Hg

Humidity: 88%

Dew Point: 61 °F

Location of RybnikLocation

Past Weather in Rybnik — Graph

°F

Rybnik Temperature Yesterday

Maximum temperature yesterday: 81 °F (at 2:00 PM)
Minimum temperature yesterday: 57 °F (at 4:30 AM)
Average temperature yesterday: 67 °F

High & Low Weather Summary for the Past Weeks

 TemperatureHumidityPressure
High81 °F (May 23, 1:30 PM)100% (May 17, 9:30 PM)30.09 "Hg (May 17, 9:30 PM)
Low37 °F (May 20, 5:00 AM)26% (May 23, 4:00 PM)29.65 "Hg (May 24, 5:30 PM)
Average60 °F72%29.92 "Hg
* Reported May 16 9:00 PM — May 31 9:00 PM, Rybnik, Weather by CustomWeather, © 2016

Note: Actual official high and low records may vary slightly from our data, if they occured in-between our weather recording intervals... More about our weather records

Advertising

Rybnik Weather History for the Previous 24 Hours

Scroll right to see more
 ConditionsComfort  
Time TempWeatherWind HumidityBarometerVisibility
9:00 PM
Tue, May 31
66 °FScattered clouds.3 mph83%29.83 "HgN/A
8:30 PM66 °FSunny.3 mph78%29.83 "Hg10 mi
8:00 PM66 °FPassing clouds.3 mph83%29.80 "HgN/A
7:30 PM68 °FSunny.6 mph73%29.80 "Hg10 mi
7:00 PM68 °FPassing clouds.6 mph78%29.80 "HgN/A
6:30 PM70 °FPassing clouds.6 mph73%29.77 "HgN/A
6:00 PM70 °FPartly sunny.6 mph78%29.80 "HgN/A
5:30 PM72 °FPassing clouds.6 mph73%29.80 "HgN/A
5:00 PM70 °FPassing clouds.6 mph78%29.80 "HgN/A
4:30 PM70 °FPassing clouds.6 mph73%29.80 "HgN/A
4:00 PM70 °FPassing clouds.5 mph69%29.80 "HgN/A
3:30 PM70 °FPassing clouds.5 mph73%29.80 "HgN/A
3:00 PM70 °FScattered clouds.7 mph69%29.80 "HgN/A
2:30 PM72 °FThunderstorms. Scattered clouds.6 mph65%29.80 "HgN/A
2:00 PM72 °FThunderstorms. Scattered clouds.3 mph65%29.80 "HgN/A
1:30 PM70 °FThundershowers. Scattered clouds.10 mph64%29.80 "HgN/A
1:00 PM72 °FThundershowers. Scattered clouds.3 mph61%29.80 "HgN/A
12:30 PM73 °FThundershowers. Scattered clouds.3 mph57%29.80 "HgN/A
12:00 PM72 °FScattered clouds.6 mph69%29.80 "HgN/A
11:30 AM72 °FPassing clouds.2 mph69%29.80 "HgN/A
11:00 AM72 °FSunny.2 mph69%29.80 "Hg10 mi
10:30 AM70 °FSunny.2 mph73%29.80 "Hg10 mi
10:00 AM70 °FSunny.2 mph78%29.80 "Hg10 mi
9:30 AM70 °FSunny.2 mph73%29.80 "Hg10 mi
9:00 AM70 °FPassing clouds.3 mph73%29.80 "HgN/A
8:30 AM68 °FPassing clouds.5 mph78%29.80 "HgN/A
8:00 AM66 °FPassing clouds.5 mph88%29.80 "HgN/A
7:30 AM66 °FClear.3 mph83%29.80 "Hg5 mi
7:00 AM63 °FClear.3 mph94%29.80 "Hg5 mi
6:30 AM59 °FClear.2 mph100%29.80 "Hg4 mi
6:00 AM57 °FFog.1 mph100%29.80 "Hg2 mi
5:30 AM55 °FCool.1 mph100%29.80 "Hg1 mi
5:00 AM55 °FFog.1 mph100%29.80 "Hg1 mi
4:30 AM57 °FCool.1 mph100%29.77 "Hg1 mi
4:00 AM55 °FCool.2 mph100%29.77 "Hg1 mi
3:30 AM57 °FCool.3 mph100%29.77 "Hg2 mi
3:00 AM59 °FCool.2 mph94%29.77 "Hg3 mi
2:00 AM59 °FClear.3 mph100%29.80 "Hg10 mi
1:30 AM61 °FClear.1 mph94%29.80 "Hg10 mi
1:00 AM61 °FPassing clouds.2 mph94%29.80 "HgN/A
12:30 AM61 °FPassing clouds.5 mph94%29.80 "HgN/A
12:00 AM61 °FPassing clouds.3 mph94%29.80 "HgN/A
11:30 PM
Mon, May 30
63 °FClear.3 mph88%29.80 "Hg10 mi
11:00 PM63 °FPassing clouds.1 mph94%29.80 "HgN/A
10:30 PM61 °FSprinkles. Passing clouds.2 mph100%29.80 "HgN/A
10:00 PM63 °FPassing clouds.2 mph94%29.80 "HgN/A
Weather by CustomWeather, © 2016

See weather overviewHow to use our weather pages